| time (UTC) | temp C | wind direction | speed KPH | gust KPH | rain 1hr cm | rain 24hr cm | rain mn cm | humidity % | barometer mb |
| 20260906144612 | 25 | 86 | 0.0 | 4.8 | 0.00 | 0.03 | 0.00 | 82 | 1018.9 |
| 20260906143108 | 25 | 132 | 0.0 | 4.8 | 0.00 | 0.03 | 0.00 | 82 | 1019.0 |
| 20260906141552 | 24 | 90 | 0.0 | 6.4 | 0.00 | 0.03 | 0.00 | 84 | 1019.0 |
| 20260906140047 | 23 | 155 | 0.0 | 6.4 | 0.00 | 0.03 | 0.00 | 87 | 1018.9 |
| 20260906134545 | 23 | 146 | 0.0 | 8.0 | 0.00 | 0.03 | 0.00 | 89 | 1018.8 |
| 20260906133046 | 22 | 85 | 0.0 | 6.4 | 0.00 | 0.03 | 0.00 | 92 | 1018.9 |
| 20260906131538 | 21 | 68 | 1.6 | 14.5 | 0.00 | 0.03 | 0.00 | 95 | 1018.7 |
| 20260906130031 | 20 | 93 | 1.6 | 11.3 | 0.00 | 0.03 | 0.00 | 97 | 1018.7 |
| 20260906124528 | 20 | 82 | 0.0 | 1.6 | 0.00 | 0.03 | 0.00 | 98 | 1018.6 |
| 20260906123029 | 20 | 323 | 0.0 | 0.0 | 0.00 | 0.03 | 0.00 | 98 | 1018.5 |
| 20260906121525 | 19 | 322 | 0.0 | 0.0 | 0.00 | 0.03 | 0.00 | 99 | 1018.4 |
| 20260906120023 | 19 | 322 | 0.0 | 0.0 | 0.00 | 0.03 | 0.00 | 98 | 1018.1 |
| 20260906114538 | 19 | 322 | 0.0 | 0.0 | 0.00 | 0.03 | 0.00 | 98 | 1017.8 |
| 20260906113018 | 19 | 322 | 0.0 | 1.6 | 0.00 | 0.03 | 0.00 | 98 | 1017.6 |
| 20260906111517 | 19 | 322 | 0.0 | 3.2 | 0.00 | 0.03 | 0.00 | 98 | 1017.5 |
| 20260906110016 | 19 | 322 | 0.0 | 6.4 | 0.00 | 0.03 | 0.00 | 98 | 1017.4 |
| 20260906104516 | 19 | 263 | 0.0 | 0.0 | 0.00 | 0.03 | 0.00 | 98 | 1017.0 |
| 20260906103012 | 20 | 263 | 0.0 | 1.6 | 0.00 | 0.03 | 0.00 | 98 | 1017.0 |
| 20260906101511 | 20 | 263 | 0.0 | 0.0 | 0.00 | 0.03 | 0.00 | 97 | 1017.0 |
| 20260906100012 | 20 | 263 | 0.0 | 0.0 | 0.00 | 0.03 | 0.00 | 97 | 1017.0 |
| 20260906094525 | 20 | 263 | 0.0 | 0.0 | 0.00 | 0.03 | 0.00 | 97 | 1016.7 |
| 20260906093014 | 20 | 263 | 0.0 | 0.0 | 0.00 | 0.03 | 0.00 | 97 | 1016.8 |
| 20260906091506 | 20 | 263 | 0.0 | 4.8 | 0.00 | 0.03 | 0.00 | 96 | 1016.8 |
| 20260906090004 | 20 | 190 | 0.0 | 0.0 | 0.00 | 0.08 | 0.00 | 96 | 1016.6 |
| 20260906084503 | 20 | 190 | 0.0 | 0.0 | 0.00 | 0.08 | 0.00 | 96 | 1016.7 |
| 20260906083002 | 20 | 190 | 0.0 | 0.0 | 0.00 | 0.08 | 0.00 | 95 | 1016.5 |
| 20260906081602 | 21 | 190 | 0.0 | 0.0 | 0.00 | 0.08 | 0.00 | 95 | 1016.6 |
| 20260906080105 | 21 | 190 | 0.0 | 0.0 | 0.00 | 0.08 | 0.00 | 95 | 1016.7 |
| 20260906074558 | 21 | 190 | 0.0 | 0.0 | 0.00 | 0.08 | 0.00 | 94 | 1016.9 |
| 20260906073058 | 21 | 190 | 0.0 | 0.0 | 0.00 | 0.08 | 0.00 | 94 | 1016.8 |
| 20260906071557 | 21 | 190 | 0.0 | 0.0 | 0.00 | 0.08 | 0.00 | 93 | 1016.9 |
| 20260906070056 | 21 | 190 | 0.0 | 3.2 | 0.00 | 0.08 | 0.00 | 93 | 1016.9 |
| 20260906064554 | 21 | 102 | 0.0 | 0.0 | 0.00 | 0.08 | 0.00 | 93 | 1016.8 |
| 20260906063053 | 21 | 102 | 0.0 | 1.6 | 0.00 | 0.08 | 0.00 | 92 | 1016.9 |
| 20260906061552 | 21 | 92 | 0.0 | 1.6 | 0.00 | 0.08 | 0.00 | 92 | 1017.0 |
| 20260906060051 | 21 | 92 | 0.0 | 3.2 | 0.00 | 0.08 | 0.00 | 92 | 1016.9 |
| 20260906054550 | 21 | 92 | 0.0 | 1.6 | 0.00 | 0.08 | 0.00 | 92 | 1016.7 |
| 20260906053047 | 22 | 92 | 0.0 | 3.2 | 0.00 | 0.08 | 0.00 | 91 | 1016.6 |
| 20260906051555 | 22 | 92 | 0.0 | 6.4 | 0.00 | 0.08 | 0.00 | 91 | 1016.7 |
| 20260906050042 | 22 | 106 | 0.0 | 6.4 | 0.00 | 0.08 | 0.08 | 90 | 1016.5 |
| 20260906044541 | 22 | 109 | 0.0 | 1.6 | 0.00 | 0.08 | 0.08 | 90 | 1016.4 |
| 20260906043038 | 22 | 107 | 0.0 | 1.6 | 0.00 | 0.08 | 0.08 | 89 | 1016.2 |
| 20260906041537 | 22 | 52 | 0.0 | 1.6 | 0.00 | 0.08 | 0.08 | 89 | 1016.0 |
| 20260906040035 | 22 | 53 | 0.0 | 4.8 | 0.00 | 0.08 | 0.08 | 88 | 1015.8 |
| 20260906034534 | 22 | 156 | 0.0 | 3.2 | 0.00 | 0.08 | 0.08 | 88 | 1015.6 |
| 20260906033045 | 22 | 153 | 0.0 | 8.0 | 0.00 | 0.08 | 0.08 | 88 | 1015.7 |
| 20260906031538 | 22 | 80 | 0.0 | 9.7 | 0.00 | 0.08 | 0.08 | 88 | 1015.7 |
| 20260906030033 | 22 | 77 | 1.6 | 9.7 | 0.00 | 0.08 | 0.08 | 88 | 1015.6 |
| 20260906024545 | 22 | 101 | 0.0 | 6.4 | 0.00 | 0.08 | 0.08 | 88 | 1015.7 |
| 20260906023031 | 22 | 74 | 0.0 | 17.7 | 0.00 | 0.08 | 0.08 | 88 | 1015.5 |
| 20260906021529 | 22 | 52 | 1.6 | 11.3 | 0.00 | 0.08 | 0.08 | 89 | 1015.6 |
| 20260906020028 | 22 | 84 | 3.2 | 17.7 | 0.00 | 0.08 | 0.08 | 88 | 1015.5 |
| 20260906014539 | 22 | 317 | 0.0 | 9.7 | 0.00 | 0.08 | 0.08 | 88 | 1015.6 |
| 20260906013039 | 22 | 67 | 0.0 | 8.0 | 0.00 | 0.08 | 0.08 | 88 | 1015.3 |
| 20260906011526 | 22 | 82 | 0.0 | 9.7 | 0.00 | 0.08 | 0.08 | 88 | 1015.5 |
| 20260906010027 | 22 | 360 | 0.0 | 8.0 | 0.00 | 0.08 | 0.08 | 89 | 1015.5 |
| 20260906004522 | 23 | 78 | 1.6 | 6.4 | 0.00 | 0.08 | 0.08 | 88 | 1015.4 |
| 20260906003020 | 23 | 57 | 1.6 | 12.9 | 0.00 | 0.08 | 0.08 | 87 | 1015.3 |
| 20260906001521 | 24 | 83 | 3.2 | 14.5 | 0.00 | 0.08 | 0.08 | 85 | 1014.9 |
| 20260906000016 | 25 | 82 | 1.6 | 11.3 | 0.00 | 0.08 | 0.08 | 84 | 1014.4 |
| 20260905234515 | 25 | 74 | 3.2 | 12.9 | 0.00 | 0.08 | 0.08 | 83 | 1014.1 |
| 20260905233015 | 26 | 20 | 0.0 | 14.5 | 0.00 | 0.08 | 0.08 | 82 | 1014.2 |
| 20260905231514 | 26 | 136 | 0.0 | 4.8 | 0.00 | 0.08 | 0.08 | 81 | 1014.2 |
| 20260905230013 | 27 | 36 | 3.2 | 16.1 | 0.00 | 0.08 | 0.08 | 78 | 1013.8 |
| 20260905224513 | 27 | 63 | 0.0 | 8.0 | 0.00 | 0.08 | 0.08 | 76 | 1013.6 |
| 20260905223012 | 27 | 321 | 0.0 | 8.0 | 0.00 | 0.08 | 0.08 | 77 | 1013.6 |
| 20260905221511 | 27 | 71 | 1.6 | 6.4 | 0.00 | 0.08 | 0.08 | 78 | 1013.4 |
| 20260905220012 | 27 | 341 | 4.8 | 12.9 | 0.00 | 0.08 | 0.08 | 76 | 1013.5 |
| 20260905214511 | 27 | 349 | 1.6 | 9.7 | 0.00 | 0.08 | 0.08 | 79 | 1013.6 |
| 20260905213010 | 27 | 332 | 3.2 | 12.9 | 0.00 | 0.08 | 0.08 | 81 | 1013.6 |
| 20260905211510 | 27 | 86 | 1.6 | 12.9 | 0.00 | 0.08 | 0.08 | 80 | 1013.7 |
| 20260905210009 | 27 | 327 | 3.2 | 9.7 | 0.00 | 0.08 | 0.08 | 79 | 1013.5 |
| 20260905204508 | 27 | 89 | 1.6 | 9.7 | 0.00 | 0.08 | 0.08 | 80 | 1013.8 |
| 20260905203009 | 27 | 355 | 1.6 | 9.7 | 0.00 | 0.08 | 0.08 | 81 | 1014.1 |
| 20260905201508 | 27 | 92 | 0.0 | 12.9 | 0.00 | 0.08 | 0.08 | 82 | 1013.9 |
| 20260905200008 | 27 | 5 | 1.6 | 12.9 | 0.00 | 0.08 | 0.08 | 81 | 1014.0 |
| 20260905194508 | 28 | 88 | 3.2 | 8.0 | 0.00 | 0.08 | 0.08 | 78 | 1014.0 |
| 20260905193006 | 28 | 26 | 1.6 | 12.9 | 0.00 | 0.08 | 0.08 | 78 | 1013.8 |
| 20260905191505 | 28 | 75 | 1.6 | 12.9 | 0.00 | 0.08 | 0.08 | 79 | 1013.8 |
| 20260905190004 | 29 | 59 | 1.6 | 9.7 | 0.00 | 0.08 | 0.08 | 78 | 1013.9 |
| 20260905184505 | 28 | 98 | 1.6 | 9.7 | 0.00 | 0.08 | 0.08 | 78 | 1013.9 |
| 20260905183003 | 29 | 92 | 3.2 | 16.1 | 0.00 | 0.08 | 0.08 | 78 | 1013.9 |
| 20260905181501 | 29 | 78 | 1.6 | 9.7 | 0.00 | 0.08 | 0.08 | 79 | 1014.0 |
| 20260905180001 | 28 | 343 | 0.0 | 6.4 | 0.00 | 0.08 | 0.08 | 78 | 1013.9 |
| 20260905174605 | 28 | 103 | 1.6 | 6.4 | 0.00 | 0.08 | 0.08 | 79 | 1013.8 |
| 20260905173102 | 29 | 340 | 3.2 | 9.7 | 0.00 | 0.08 | 0.08 | 77 | 1013.9 |
| 20260905171559 | 30 | 69 | 0.0 | 6.4 | 0.00 | 0.08 | 0.08 | 78 | 1013.9 |
| 20260905170055 | 28 | 84 | 0.0 | 14.5 | 0.00 | 0.08 | 0.08 | 80 | 1014.0 |
| 20260905164554 | 28 | 355 | 3.2 | 9.7 | 0.00 | 0.08 | 0.08 | 81 | 1014.2 |
| 20260905163055 | 28 | 259 | 1.6 | 11.3 | 0.00 | 0.08 | 0.08 | 81 | 1014.2 |
| 20260905161559 | 27 | 10 | 1.6 | 6.4 | 0.00 | 0.08 | 0.08 | 82 | 1014.3 |
| 20260905160046 | 27 | 351 | 6.4 | 14.5 | 0.00 | 0.08 | 0.08 | 83 | 1014.2 |
| 20260905154543 | 27 | 330 | 3.2 | 9.7 | 0.03 | 0.08 | 0.08 | 83 | 1013.9 |
| 20260905153039 | 27 | 355 | 0.0 | 8.0 | 0.03 | 0.08 | 0.08 | 87 | 1013.9 |
| 20260905151534 | 26 | 336 | 1.6 | 8.0 | 0.03 | 0.08 | 0.08 | 87 | 1013.9 |
| 20260905150031 | 26 | 264 | 0.0 | 6.4 | 0.03 | 0.08 | 0.08 | 90 | 1013.9 |